GW0481 Weather Reports


time (UTC)temp
C
wind
direction
speed
KPH
gust
KPH
rain 1hr
cm
rain 24hr
cm
rain mn
cm
humidity
%
barometer
mb
20260505040045 15 182 1.6 11.3 0.00 0.00 0.00 64 1010.2
20260505034552 15 196 0.0 4.8 0.00 0.00 0.00 62 1010.2
20260505033045 15 0 0.0 3.2 0.00 0.00 0.00 61 1010.2
20260505031557 16 166 0.0 3.2 0.00 0.00 0.00 60 1010.2
20260505030058 16 145 1.6 8.0 0.00 0.00 0.00 60 1010.2
20260505024552 15 178 0.0 6.4 0.00 0.00 0.00 62 1010.4
20260505023051 16 0 0.0 3.2 0.00 0.00 0.00 62 1010.5
20260505021549 16 0 0.0 6.4 0.00 0.00 0.00 61 1010.5
20260505020051 16 0 0.0 1.6 0.00 0.00 0.00 58 1010.3
20260505014602 17 0 0.0 8.0 0.00 0.00 0.00 56 1010.2
20260505013051 17 0 0.0 4.8 0.00 0.00 0.00 55 1010.2
20260505011552 18 147 0.0 4.8 0.00 0.00 0.00 55 1010.0
20260505010050 18 153 1.6 6.4 0.00 0.00 0.00 53 1009.7
20260505004554 18 155 1.6 11.3 0.00 0.00 0.00 51 1009.5
20260505003046 19 141 1.6 8.0 0.00 0.00 0.00 50 1009.5
20260505001550 19 146 1.6 8.0 0.00 0.00 0.00 48 1009.2
20260505000052 20 154 1.6 9.7 0.00 0.00 0.00 45 1009.2
20260504234544 20 144 0.0 6.4 0.00 0.00 0.00 43 1009.1
20260504233044 21 0 0.0 12.9 0.00 0.00 0.00 42 1009.1
20260504231545 21 0 1.6 8.0 0.00 0.00 0.00 42 1009.1
20260504230049 21 200 1.6 17.7 0.00 0.00 0.00 40 1009.1
20260504224549 22 166 1.6 12.9 0.00 0.00 0.00 40 1009.1
20260504223050 22 188 3.2 14.5 0.00 0.00 0.00 40 1009.0
20260504221545 22 273 3.2 14.5 0.00 0.00 0.00 38 1009.1
20260504220052 22 50 3.2 19.3 0.00 0.00 0.00 38 1009.2
20260504214557 22 200 3.2 19.3 0.00 0.00 0.00 37 1009.2
20260504213046 22 219 4.8 17.7 0.00 0.00 0.00 37 1009.3
20260504211548 23 170 3.2 17.7 0.00 0.00 0.00 37 1009.3
20260504210058 23 267 4.8 17.7 0.00 0.00 0.00 35 1009.1
20260504204601 23 194 3.2 14.5 0.00 0.00 0.00 35 1009.5
20260504203106 23 132 4.8 24.1 0.00 0.00 0.00 34 1009.5
20260504201547 24 306 8.0 20.9 0.00 0.00 0.00 34 1009.8
20260504200051 23 242 6.4 19.3 0.00 0.00 0.00 35 1010.0
20260504194553 24 150 6.4 16.1 0.00 0.00 0.00 34 1010.2
20260504193053 24 279 1.6 16.1 0.00 0.00 0.00 38 1010.3
20260504191554 23 103 4.8 22.5 0.00 0.00 0.00 35 1010.6
20260504190053 23 157 3.2 17.7 0.00 0.00 0.00 38 1010.7
20260504184545 23 175 3.2 14.5 0.00 0.00 0.00 36 1010.7
20260504183043 23 157 3.2 20.9 0.00 0.00 0.00 38 1011.2
20260504181543 23 160 4.8 16.1 0.00 0.00 0.00 35 1011.1
20260504180106 23 0 4.8 20.9 0.00 0.00 0.00 36 1011.4
20260504174546 23 197 4.8 20.9 0.00 0.00 0.00 35 1011.4
20260504173105 22 252 6.4 19.3 0.00 0.00 0.00 36 1011.7
20260504171545 22 170 6.4 24.1 0.00 0.00 0.00 36 1012.0
20260504081549 7 0 0.0 1.6 0.00 0.00 0.00 74 1014.5
20260504044546 9 239 0.0 6.4 0.00 0.00 0.00 59 1014.3
20260504043053 8 0 0.0 4.8 0.00 0.00 0.00 58 1014.1
20260504041546 8 0 0.0 8.0 0.00 0.00 0.00 58 1014.0